Hourly Data Report for June 09, 2021

WINNIPEG THE FORKS
MANITOBA
Current Station Operator: ECCC - MSC

49°53'18.008" N
97°07'46.007" W
230.00 m
5023262
71579
XWN

Download Data

Hourly Data (June 2021)
Hourly Data Report for June 9, 2021
TIME
LST
Temp Definition
°C
Dew Point Definition
°C
Rel Hum Definition
%
Precip. Amount Definition
mm

Wind Dir Definition
10's deg

Wind Spd Definition
km/h
Visibility Definition
km
Stn Press Definition
kPa
Hmdx Definition


Wind Chill Definition


Weather Definition


00:00 23.2 10.8 46 0.0 6 7   98.64 25   LegendNANA
01:00 22.8 10.6 46 0.0 8 5   98.66     LegendNANA
02:00 22.6 12.1 51 0.0 2 3   98.80 25   LegendNANA
03:00 18.7 14.7 77 1.3 3 6   98.70     LegendNANA
04:00 17.6 15.1 85 0.6 1 9   98.67     LegendNANA
05:00 17.8 15.3 85 1.4 30 4   98.90     LegendNANA
06:00 16.9 15.6 92 6.0 35 5   98.77     LegendNANA
07:00 17.1 15.8 92 3.0 6 5   98.83     LegendNANA
08:00 17.2 16.0 93 0.7 4 8   98.61     LegendNANA
09:00 18.5 17.4 93 0.7 8 6   98.52     LegendNANA
10:00 21.0 18.7 87 0.0 8 8   98.47 28   LegendNANA
11:00 23.0 19.1 79 0.0 9 10   98.43 30   LegendNANA
12:00 22.9 18.4 76 0.0 8 7   98.36 29   LegendNANA
13:00 20.6 18.9 90 7.4 24 7   98.40 27   LegendNANA
14:00 20.3 19.3 94 10.2 34 9   98.33 27   LegendNANA
15:00 19.4 18.2 93 1.7 31 10   98.45     LegendNANA
16:00 20.7 18.8 89 0.0 33 7   98.49 27   LegendNANA
17:00 22.0 18.9 83 0.0 31 5   98.48 29   LegendNANA
18:00 21.9 18.1 79 0.0 33 7   98.50 28   LegendNANA
19:00 21.5 17.6 78 0.0 32 8   98.54 27   LegendNANA
20:00 21.4 17.4 78 0.0 30 3   98.58 27   LegendNANA
21:00 20.6 16.6 78 0.0 32 7   98.62 26   LegendNANA
22:00 20.0 16.8 82 0.0 33 4   98.67 25   LegendNANA
23:00 19.3 16.2 82 0.0 33 8   98.67     LegendNANA

Notes on Data Quality.

Legend

  • E = Estimated
  • M = Missing
  • NA = Not Available*
  • [empty] = Indicates an unobserved value
Date modified: